Temp
59 52 47 54 56 58 57 54 54 60 66 62 62 63 68 70 67 67 67 69 69 71 76 76 74 71 69 68 70 70 69 67 68 66 67 65 66 70 72 72 73 73 72 74
53 48 58 62 62 60 58 54 53 59 65 61 56 59 62 64 64 65 67 66 68 68 72 69 67 68 68 67 67 68 69 68 66 65 64 66 65 65 67 70 73 74 72 72
49 57 65 63 59 58 57 54 54 55 61 58 56 52 56 63 66 68 67 69 70 70 70 66 67 65 65 65 66 67 67 67 66 66 64 63 63 63 62 63 67 71 73 71
53 63 62 60 59 60 51 62 61 59 54 44 56 40 49 59 61 64 66 65 65 67 66 68 66 63 65 66 66 65 65 66 67 65 64 63 61 60 62 62 63 64 68 71
54 56 56 55 58 62 57 64 60 58 50 45 48 42 48 54 56 60 63 66 69 66 66 64 64 65 65 66 65 65 65 65 65 65 64 62 61 61 61 62 63 65 65 65
57 64 61 59 64 63 64 57 52 48 45 37 45 44 42 51 56 60 63 62 65 62 63 63 64 65 64 64 64 64 64 64 64 64 64 63 62 62 60 61 60 62 67 70
55 55 61 65 56 59 56 44 34 33 33 34 49 44 45 57 62 63 61 61 61 61 61 61 62 62 63 64 64 63 63 63 63 63 63 63 62 60 60 60 59 60 62 65
44 42 56 62 56 49 48 45 34 29 30 36 47 40 48 61 62 64 66 64 64 62 62 62 63 64 65 66 65 64 63 64 64 63 62 62 60 60 60 61 60 59 60 62
43 48 61 63 61 57 52 45 50 39 37 32 38 46 54 59 60 62 63 62 62 63 64 64 63 63 63 64 64 63 62 62 62 62 60 60 62 61 61 60 59 59 60 64
50 42 56 60 62 61 54 58 43 37 29 26 36 41 43 51 54 58 58 58 60 60 62 63 63 62 62 62 62 60 61 62 62 62 61 63 62 61 60 59 58 58 58 60
49 43 45 52 48 47 50 45 45 42 36 28 28 36 52 55 57 56 59 62 62 60 62 63 62 61 60 60 58 58 59 60 60 60 60 60 59 60 60 59 59 58 58 58
48 42 35 43 51 54 49 44 44 35 33 32 29 33 56 58 57 56 58 61 60 59 56 56 56 57 57 57 57 57 58 58 58 59 59 58 58 58 58 58 58 57 57 57
48 38 32 38 43 47 44 51 49 45 42 37 33 37 55 56 55 56 52 53 55 55 54 53 53 53 54 54 55 55 55 55 56 56 56 56 56 56 55 56 56 56 56 56
52 40 37 32 38 41 40 46 50 44 35 37 38 38 49 52 49 50 50 52 52 52 53 53 51 51 52 53 54 55 54 54 55 55 54 53 53 55 56 57 56 57 57 56
43 35 38 41 45 46 44 44 45 42 42 35 41 42 48 46 47 47 50 52 51 51 53 52 51 51 51 52 53 55 54 54 53 55 56 55 56 57 58 58 56 58 58 56
40 33 37 36 44 44 41 46 46 46 47 46 45 44 50 53 47 49 48 50 48 50 51 53 54 54 54 55 53 52 52 52 53 53 53 55 55 55 55 56 56 55 57 56
37 34 33 30 39 39 33 42 45 46 48 46 40 43 45 44 47 46 46 46 47 49 51 52 52 51 48 47 49 48 50 52 52 52 53 54 54 53 53 55 58 56 55 53
36 36 35 29 31 23 40 53 51 45 46 47 46 47 47 45 46 48 46 44 49 49 50 48 44 45 47 48 48 49 49 48 48 48 49 51 51 52 53 53 54 56 53 53
41 36 31 24 25 35 44 47 46 45 39 46 43 45 46 46 45 43 49 49 47 45 44 44 46 46 47 45 46 46 46 46 46 45 47 50 51 50 49 51 50 50 50 51
44 42 34 29 24 23 38 49 55 53 33 46 46 43 42 42 35 40 46 48 44 43 45 45 45 45 44 45 46 44 43 43 43 45 47 49 49 48 48 48 50 49 48 52
36 35 32 31 28 32 44 49 52 35 33 44 45 42 41 37 39 44 44 43 45 44 44 44 44 43 43 44 43 40 40 40 43 45 46 46 47 46 47 48 47 48 47 52
35 33 32 33 30 27 47 47 38 42 47 45 43 42 40 41 42 42 42 43 43 41 42 42 40 40 41 42 40 38 38 42 44 44 44 44 45 47 48 47 47 47 49 48
35 39 34 36 36 45 47 46 50 48 44 44 41 42 43 40 39 41 41 42 40 40 40 40 38 38 39 40 40 38 40 42 42 42 42 42 44 46 47 46 46 46 48 48
42 46 38 38 43 45 47 50 50 48 44 46 45 43 40 38 40 40 40 38 37 37 37 37 37 36 36 39 40 40 41 43 42 40 41 42 42 43 45 46 46 46 46 47
41 45 42 41 43 47 49 48 48 47 46 45 44 42 41 39 38 38 36 35 35 35 36 37 35 35 36 38 39 41 43 43 42 41 41 41 42 43 43 45 45 47 48 49
41 40 35 37 45 42 42 46 47 44 42 42 42 41 40 40 36 36 34 34 34 35 35 35 35 35 36 38 39 40 42 42 41 41 42 42 42 42 44 45 46 43 45 45
MSLP
1006.27 1006.94 1007.21 1007.06 1007.10 1007.08 1006.95 1006.72 1006.48 1005.49 1004.94 1004.96 1004.67 1004.49 1003.54 1003.58 1004.04 1004.46 1004.51 1004.58 1004.44 1004.46 1004.11 1004.20 1004.92 1005.60 1006.16 1006.67 1006.67 1007.00 1007.49 1007.87 1008.03 1008.50 1008.63 1008.77 1009.07 1009.01 1009.03 1008.89 1008.54 1008.74 1008.87 1008.74
1006.99 1007.08 1006.53 1006.50 1006.64 1006.68 1006.55 1006.59 1006.26 1005.37 1004.90 1004.83 1004.71 1004.42 1003.54 1003.71 1003.98 1004.10 1004.30 1004.62 1004.56 1004.58 1004.46 1005.07 1005.44 1005.94 1006.04 1006.57 1006.65 1006.70 1007.02 1007.43 1007.71 1007.95 1008.27 1008.43 1008.76 1008.84 1008.87 1008.82 1008.73 1008.39 1008.54 1008.52
1006.56 1005.67 1005.70 1006.12 1006.19 1006.34 1006.04 1006.13 1005.98 1005.74 1004.81 1004.82 1004.97 1004.95 1004.49 1004.05 1003.91 1003.73 1003.91 1003.80 1003.90 1004.13 1004.48 1005.24 1005.73 1005.82 1006.24 1006.56 1006.58 1006.53 1006.83 1007.06 1007.38 1007.59 1007.99 1008.30 1008.53 1008.71 1008.73 1008.66 1008.37 1008.23 1008.30 1008.41
1006.18 1005.16 1005.36 1005.41 1005.51 1005.29 1005.31 1005.01 1005.19 1005.44 1005.49 1005.90 1005.46 1005.93 1005.29 1004.48 1004.22 1004.10 1003.86 1004.07 1004.06 1003.75 1003.99 1004.92 1005.47 1005.92 1005.94 1006.22 1006.26 1006.52 1006.90 1007.27 1007.36 1007.56 1007.88 1008.25 1008.75 1009.26 1009.03 1008.82 1008.24 1008.03 1007.92 1008.14
1005.71 1005.38 1005.25 1005.10 1004.92 1004.76 1004.26 1004.14 1004.81 1005.36 1006.01 1006.56 1006.69 1006.99 1005.67 1005.03 1004.68 1004.25 1003.94 1003.64 1003.13 1002.96 1003.39 1004.44 1005.37 1005.55 1005.88 1006.03 1006.24 1006.53 1006.83 1007.09 1007.05 1007.08 1007.44 1007.87 1008.22 1008.60 1008.52 1008.35 1008.13 1007.63 1007.48 1007.53
1005.46 1005.13 1004.92 1004.61 1004.25 1004.24 1004.18 1004.69 1005.67 1006.35 1007.27 1007.83 1007.40 1007.17 1006.51 1005.38 1004.62 1004.32 1003.94 1003.64 1003.14 1003.10 1003.52 1004.44 1005.16 1005.50 1005.89 1005.92 1005.97 1006.09 1006.37 1006.69 1006.69 1006.83 1006.87 1007.20 1007.80 1008.13 1008.19 1008.04 1008.01 1007.75 1007.42 1007.34
1005.39 1005.18 1004.64 1004.27 1004.26 1004.32 1004.80 1005.79 1007.67 1008.63 1009.03 1008.80 1007.86 1007.53 1006.24 1005.06 1004.83 1004.31 1004.05 1003.92 1003.95 1004.23 1004.72 1005.11 1005.32 1005.83 1005.83 1005.95 1006.00 1006.12 1006.30 1006.47 1006.34 1006.32 1006.58 1007.02 1007.37 1007.57 1007.66 1007.66 1007.52 1007.67 1007.60 1007.37
1005.74 1005.53 1004.69 1004.62 1005.15 1005.58 1005.83 1006.67 1008.60 1009.42 1010.15 1009.79 1008.65 1007.70 1006.13 1005.50 1005.03 1004.27 1004.46 1004.24 1004.41 1005.10 1005.36 1005.71 1005.66 1005.54 1005.41 1005.41 1005.45 1005.52 1005.70 1005.75 1005.70 1005.92 1006.28 1006.56 1006.94 1007.13 1007.13 1007.07 1007.28 1007.42 1007.30 1006.97
1006.08 1005.71 1004.97 1005.07 1005.57 1005.88 1006.25 1007.15 1007.87 1009.38 1010.56 1010.77 1009.68 1008.14 1006.69 1005.89 1005.68 1005.54 1005.08 1005.36 1005.40 1005.53 1005.49 1005.42 1005.41 1005.13 1005.01 1005.09 1005.11 1005.04 1005.29 1005.37 1005.39 1005.67 1005.97 1006.23 1006.16 1006.44 1006.50 1006.45 1006.61 1006.68 1006.58 1006.54
1006.24 1006.52 1006.00 1005.57 1005.64 1006.04 1006.40 1007.31 1008.45 1010.09 1011.47 1011.63 1010.26 1008.80 1007.34 1006.71 1006.32 1005.80 1005.97 1006.14 1005.92 1005.88 1005.87 1005.65 1005.56 1005.50 1005.27 1005.11 1004.83 1004.95 1004.97 1005.07 1005.12 1005.35 1005.40 1005.37 1005.41 1005.61 1005.77 1005.92 1006.11 1006.15 1005.98 1005.84
1006.69 1007.42 1007.74 1007.14 1007.13 1007.00 1007.43 1008.02 1009.39 1010.52 1011.30 1011.63 1011.02 1009.12 1007.31 1006.72 1006.38 1006.32 1006.01 1005.96 1006.16 1006.28 1006.19 1006.09 1006.21 1006.26 1006.10 1005.86 1005.67 1005.74 1005.79 1005.77 1005.53 1005.18 1004.87 1004.88 1004.96 1005.05 1005.25 1005.44 1005.30 1005.32 1005.16 1005.09
1007.92 1008.44 1009.09 1008.72 1008.06 1008.00 1008.41 1009.07 1009.75 1011.41 1011.81 1011.60 1011.04 1008.94 1006.87 1006.64 1006.66 1006.67 1006.57 1006.46 1006.54 1007.03 1007.36 1007.44 1007.51 1007.14 1006.97 1006.95 1006.79 1006.68 1006.58 1006.42 1006.32 1006.17 1005.86 1005.82 1005.50 1004.99 1004.91 1004.95 1004.83 1004.64 1004.56 1004.16
1008.60 1009.57 1010.28 1009.91 1009.60 1009.15 1009.29 1009.77 1010.52 1011.36 1011.85 1011.52 1011.50 1009.54 1007.68 1007.27 1007.63 1007.77 1007.81 1007.85 1007.80 1007.80 1007.76 1007.92 1008.03 1008.16 1007.99 1007.88 1007.71 1007.47 1007.16 1007.02 1006.84 1006.59 1006.31 1006.12 1006.09 1005.82 1005.41 1005.02 1004.21 1003.95 1003.94 1003.81
1009.09 1010.33 1010.92 1011.06 1010.70 1010.56 1010.15 1009.95 1010.30 1011.13 1011.78 1011.43 1010.86 1010.11 1009.08 1008.72 1008.36 1008.73 1008.60 1008.42 1008.46 1008.62 1008.79 1008.78 1008.79 1008.80 1008.54 1008.27 1007.98 1007.64 1007.28 1007.03 1006.70 1006.44 1006.25 1006.09 1005.87 1005.55 1005.20 1004.77 1004.51 1004.11 1003.36 1002.93
1010.53 1011.54 1011.75 1011.66 1011.32 1011.02 1010.65 1010.25 1010.11 1010.31 1010.53 1010.62 1010.19 1009.81 1009.20 1009.30 1009.30 1009.50 1009.29 1009.07 1009.13 1009.10 1009.08 1009.02 1008.95 1008.76 1008.41 1008.02 1007.56 1007.15 1006.86 1006.57 1006.23 1005.94 1005.70 1005.44 1005.18 1004.84 1004.47 1004.15 1003.85 1003.46 1003.17 1002.39
1011.83 1012.52 1012.68 1012.63 1011.93 1011.36 1010.74 1009.86 1009.25 1009.20 1009.24 1009.13 1009.47 1009.37 1009.44 1009.86 1009.95 1009.86 1009.85 1009.72 1009.78 1009.74 1009.63 1009.36 1009.14 1008.84 1008.40 1008.02 1007.66 1007.34 1006.95 1006.53 1006.09 1005.55 1005.02 1004.65 1004.34 1004.07 1003.80 1003.42 1002.94 1002.57 1002.33 1002.01
1012.75 1013.01 1013.51 1013.31 1012.66 1011.92 1010.61 1008.93 1008.44 1008.08 1008.33 1008.45 1009.22 1009.96 1010.05 1010.15 1010.24 1010.22 1010.18 1010.31 1010.27 1010.07 1009.74 1009.35 1009.01 1008.67 1008.48 1008.19 1007.84 1007.30 1006.75 1006.20 1005.54 1004.83 1004.24 1003.76 1003.43 1003.02 1002.69 1002.30 1001.94 1001.49 1001.30 1001.25
1013.07 1013.66 1014.14 1014.21 1013.52 1012.31 1009.81 1008.66 1008.26 1008.62 1009.29 1009.35 1009.68 1010.13 1010.47 1010.65 1010.52 1010.25 1010.38 1010.28 1010.03 1009.89 1009.58 1009.31 1009.20 1008.73 1008.25 1007.79 1007.24 1006.59 1006.12 1005.59 1005.09 1004.51 1003.92 1003.41 1002.95 1002.40 1002.03 1001.73 1001.15 1000.89 1000.45 1000.36
1012.77 1013.76 1014.60 1014.86 1014.04 1011.89 1009.71 1009.35 1009.11 1008.97 1010.05 1010.37 1010.54 1010.76 1010.84 1010.82 1010.50 1010.14 1010.14 1010.42 1010.26 1009.96 1009.86 1009.58 1009.06 1008.48 1007.83 1007.39 1006.89 1006.21 1005.45 1005.07 1004.63 1003.99 1003.38 1002.58 1001.95 1001.79 1001.58 1001.17 1000.43 1000.11 999.91 999.95
1012.64 1013.14 1014.22 1014.75 1014.18 1012.40 1010.60 1009.75 1009.14 1009.04 1010.27 1010.71 1010.79 1011.05 1011.16 1011.01 1011.07 1010.52 1010.33 1010.11 1010.02 1010.07 1009.79 1009.27 1008.68 1008.10 1007.55 1006.93 1006.55 1005.93 1005.19 1004.56 1003.88 1003.24 1002.59 1002.04 1001.68 1001.10 1000.92 1000.54 1000.17 999.75 999.43 999.26
1012.69 1013.34 1013.60 1013.80 1013.46 1012.04 1010.72 1010.08 1009.53 1010.15 1011.06 1010.79 1010.97 1011.17 1011.40 1011.81 1011.87 1011.00 1010.44 1010.26 1010.13 1009.86 1009.38 1008.89 1008.34 1007.83 1007.29 1006.79 1006.20 1005.35 1004.64 1003.93 1003.37 1002.79 1002.16 1001.54 1001.05 1000.58 1000.26 999.90 999.60 999.11 998.64 998.29
1012.02 1012.58 1012.85 1013.00 1012.73 1011.98 1010.69 1010.27 1010.48 1011.16 1010.89 1011.12 1011.36 1011.50 1011.74 1011.72 1011.37 1011.10 1010.93 1010.51 1010.02 1009.57 1009.08 1008.92 1008.19 1007.53 1006.88 1006.36 1005.74 1004.79 1004.04 1003.34 1002.68 1002.06 1001.37 1000.83 1000.45 1000.05 999.55 999.24 998.88 998.50 998.01 997.73
1011.53 1011.80 1012.18 1012.28 1011.72 1011.33 1011.11 1011.10 1011.00 1010.91 1011.22 1011.42 1011.48 1011.69 1011.82 1011.85 1011.78 1011.50 1010.96 1010.47 1010.14 1009.67 1009.11 1008.69 1007.95 1006.93 1006.18 1005.64 1005.17 1004.17 1003.26 1002.65 1001.98 1001.32 1000.69 1000.31 999.90 999.33 999.00 998.47 998.13 997.85 997.45 997.25
1011.27 1011.39 1011.74 1011.79 1011.50 1011.25 1011.07 1011.20 1011.03 1011.19 1011.57 1011.73 1011.89 1012.00 1012.28 1012.40 1012.12 1011.55 1011.04 1010.46 1010.17 1009.62 1008.84 1008.15 1007.40 1006.61 1005.62 1005.06 1004.42 1003.65 1002.70 1001.91 1001.16 1000.56 1000.14 999.77 999.26 998.70 998.28 997.80 997.54 997.32 997.06 996.85
1011.28 1011.05 1011.09 1011.23 1011.28 1011.23 1011.29 1011.27 1011.47 1011.78 1012.08 1012.15 1012.33 1012.54 1012.68 1012.62 1012.17 1011.83 1011.21 1010.60 1010.05 1009.41 1008.65 1008.10 1007.35 1006.43 1005.48 1004.60 1003.72 1002.87 1002.02 1001.27 1000.37 999.87 999.59 999.18 998.54 998.00 997.56 997.11 996.84 996.63 996.48 996.46
1010.84 1010.65 1010.81 1011.02 1011.10 1011.19 1011.37 1011.62 1011.99 1012.32 1012.64 1012.72 1012.78 1012.80 1012.83 1012.68 1012.51 1011.98 1011.43 1010.87 1010.09 1009.22 1008.62 1007.82 1007.04 1006.22 1005.28 1004.30 1003.34 1002.48 1001.72 1000.98 1000.11 999.36 999.06 998.58 998.16 997.60 996.97 996.49 996.14 995.97 996.02 996.11
Wind_Speed
1 4 4 8 6 7 4 4 6 6 7 8 11 16 22 14 6 8 9 8 8 8 9 7 4 10 10 7 9 9 10 6 4 2 2 2 0 1 2 5 5 6 7 10
5 5 11 8 8 7 7 8 9 9 6 6 3 6 6 5 7 8 9 9 10 7 9 5 8 7 7 8 7 8 8 8 5 4 3 3 2 2 3 3 5 6 7 9
7 9 10 9 8 8 10 9 8 9 4 1 2 7 4 5 4 8 7 9 10 14 12 9 9 9 9 9 9 8 7 6 5 5 3 2 2 2 4 3 3 4 5 6
6 13 10 9 10 10 8 9 8 4 4 4 4 6 4 5 6 5 9 8 11 12 8 13 11 8 9 8 8 8 7 7 5 6 4 4 3 2 3 3 3 5 6 6
7 2 4 4 2 7 11 8 5 3 2 2 5 4 9 1 6 10 9 10 13 13 14 14 10 10 7 8 8 8 9 8 6 5 6 5 3 3 3 4 6 7 5 5
5 3 4 3 7 4 3 3 6 5 4 1 6 5 5 4 5 7 5 7 9 7 11 9 8 8 6 6 6 6 7 5 5 6 5 4 5 6 4 5 4 4 5 7
2 2 4 2 5 6 9 7 4 3 2 6 5 2 8 6 7 7 6 8 9 8 8 7 9 7 7 7 7 6 7 7 7 5 4 7 8 7 6 6 3 5 3 4
4 6 2 3 5 3 2 6 7 5 4 4 3 4 5 3 5 9 8 7 7 9 8 8 9 8 9 9 8 8 8 6 6 5 8 6 5 5 5 4 3 3 3 4
3 4 0 10 3 2 5 3 5 6 3 4 4 5 7 6 7 9 9 7 4 7 8 9 8 8 7 6 8 10 9 9 8 8 7 7 7 7 6 7 5 4 5 5
4 2 2 4 5 2 2 3 3 4 5 5 4 4 5 3 4 7 7 5 6 5 6 6 5 7 8 9 8 7 8 9 9 8 8 7 8 7 7 5 6 5 6 5
3 4 5 4 1 2 5 4 3 2 5 6 3 6 7 5 4 1 7 5 6 8 7 6 6 8 9 8 5 5 6 6 5 5 6 7 7 7 7 7 6 6 5 5
3 5 2 6 5 2 2 2 3 4 4 1 4 7 6 5 6 5 8 9 9 8 9 10 9 11 12 10 9 8 8 8 7 7 6 7 7 6 7 7 7 7 7 5
2 2 3 8 5 6 6 4 4 3 2 6 3 5 2 9 3 8 7 7 7 9 9 8 9 8 7 7 6 6 7 7 6 7 8 9 8 8 7 8 8 8 7 7
6 3 5 6 2 2 3 5 2 6 3 1 5 5 13 9 8 7 7 7 7 7 6 5 6 5 5 4 4 5 5 4 6 6 6 6 6 7 8 9 9 9 8 7
5 3 2 3 6 4 6 8 8 10 10 10 9 11 13 3 4 4 5 6 7 7 8 7 6 6 6 7 7 6 6 6 5 9 11 12 12 12 12 12 9 10 11 8
5 2 3 3 6 6 8 12 12 13 15 15 9 14 5 3 2 5 6 5 6 6 7 8 10 12 12 11 8 7 10 11 11 13 16 16 16 16 15 14 13 9 10 10
2 3 3 4 4 7 8 7 11 7 5 6 7 3 3 3 6 6 6 4 4 7 10 13 13 8 6 8 10 12 14 15 16 18 18 18 17 18 17 15 16 12 7 7
4 4 2 3 2 3 5 6 8 12 9 8 7 5 4 4 7 7 5 5 15 13 13 10 6 10 12 14 15 17 17 17 17 17 18 17 18 18 15 15 14 15 7 8
5 5 3 3 2 7 2 5 4 4 2 4 4 4 3 6 7 3 6 5 8 8 5 8 11 14 17 17 17 17 17 17 18 17 17 18 12 15 16 17 9 8 5 6
8 5 4 3 3 4 1 6 8 5 2 2 2 3 4 5 9 7 9 9 6 8 10 14 16 16 17 17 16 17 17 16 17 17 17 15 15 12 15 14 11 9 7 10
5 3 6 4 4 7 3 7 6 2 3 4 3 4 4 3 5 10 10 9 11 13 17 18 17 17 16 15 15 17 17 17 17 17 17 15 14 13 13 13 10 9 11 7
5 6 3 3 3 7 4 3 2 2 4 3 3 4 4 6 8 7 11 14 16 19 19 18 16 15 15 15 14 17 17 17 16 16 16 15 14 12 11 12 9 10 10 5
4 3 3 3 2 2 4 4 3 4 3 4 4 4 6 7 6 11 15 18 17 18 16 15 15 17 16 15 14 16 17 17 16 15 15 13 14 12 12 10 8 7 8 4
2 4 2 1 2 1 5 1 6 4 4 5 4 5 6 8 12 17 17 14 16 15 16 15 16 17 18 15 16 15 16 16 15 14 12 11 11 11 10 7 6 6 6 5
5 5 4 2 2 4 2 4 3 5 6 6 7 5 7 12 16 15 16 16 15 16 14 14 14 15 17 17 16 15 16 14 14 10 9 9 8 8 9 8 7 7 7 7
1 4 4 3 4 5 1 4 5 8 6 6 8 10 11 11 13 15 13 13 14 14 14 13 15 15 16 16 16 16 14 13 13 8 6 5 7 6 5 6 5 8 7 7
Wind_Direction
262 85 222 233 200 220 235 251 266 277 258 218 236 251 236 218 189 202 208 212 215 211 228 225 128 129 120 118 110 118 119 133 117 82 69 52 76 211 298 300 263 234 223 228
36 223 227 222 242 236 249 255 263 283 223 198 329 304 225 206 201 202 207 223 225 229 240 121 126 136 124 141 132 123 125 140 144 142 160 155 175 248 235 256 276 259 226 231
173 228 221 227 251 246 244 232 258 238 250 71 33 331 1 313 248 192 232 227 220 215 219 152 155 158 150 150 158 143 151 149 137 134 109 75 41 352 355 307 286 278 265 248
224 253 239 243 245 238 236 203 208 242 298 249 126 269 298 259 272 284 274 246 226 226 179 167 166 163 159 164 152 143 155 153 155 146 126 132 155 207 245 252 259 285 284 273
248 64 357 273 201 294 225 231 227 208 202 59 333 89 273 257 308 283 294 294 266 209 167 158 164 157 163 153 147 143 154 165 165 156 152 154 175 215 243 277 295 301 290 259
231 244 227 228 284 254 220 179 45 49 100 328 260 145 268 269 268 289 319 346 315 145 135 129 144 144 146 146 138 144 142 164 175 170 183 188 228 254 267 273 287 289 301 309
336 274 257 227 326 5 55 52 4 337 340 212 230 329 233 294 324 282 144 71 60 83 101 130 134 144 155 161 167 171 174 186 192 190 203 219 228 236 251 264 268 294 287 305
135 318 114 4 62 345 318 133 148 211 212 255 343 226 250 90 333 10 54 78 104 131 147 161 169 173 181 189 190 183 182 199 208 212 231 238 213 220 225 228 232 256 265 281
194 248 21 70 74 69 325 59 200 111 359 77 251 285 344 9 51 31 45 46 118 164 181 184 195 200 205 214 216 197 196 211 209 220 224 216 203 203 221 236 216 223 259 279
241 258 6 15 29 128 116 286 22 17 157 212 272 229 211 45 31 12 51 47 352 338 311 284 262 238 241 234 230 220 211 203 217 211 196 193 203 215 231 229 233 228 247 249
104 107 289 48 135 280 13 338 1 92 137 171 186 247 183 129 125 344 308 288 224 226 229 268 310 338 331 323 322 323 324 304 272 243 222 213 216 217 217 224 222 232 224 235
329 125 147 239 258 252 101 0 107 173 270 254 156 262 278 23 336 319 318 320 344 34 58 47 28 32 26 18 19 20 19 16 355 327 300 289 299 261 219 228 228 232 249 238
338 36 42 339 8 13 84 83 111 86 157 209 237 271 336 318 313 353 51 44 25 49 41 35 30 21 19 16 16 14 3 353 355 360 1 354 333 306 284 268 237 229 237 244
80 112 157 193 184 199 289 344 183 167 200 196 237 272 291 324 47 13 24 11 38 57 48 34 23 4 345 333 324 318 307 295 306 321 323 314 304 306 312 298 276 267 244 228
95 167 339 301 296 304 278 273 257 235 219 217 242 232 253 192 65 10 354 31 31 18 9 2 347 333 316 311 302 295 284 294 288 301 301 297 297 298 296 292 288 279 267 252
355 162 87 285 282 307 307 275 267 262 250 255 247 255 24 59 32 7 2 57 27 355 344 335 326 316 311 312 316 324 317 306 301 295 290 288 287 287 284 281 276 271 274 258
98 109 84 254 19 338 299 246 248 245 282 226 234 98 1 356 360 324 358 42 349 330 322 318 315 319 331 312 303 295 292 288 284 283 283 282 284 283 276 272 268 257 246 265
153 103 104 269 354 225 233 347 98 96 60 49 61 43 34 342 303 287 124 7 341 325 314 315 323 307 301 299 299 302 301 297 297 294 292 288 284 280 284 281 269 272 249 222
162 123 149 186 216 286 31 23 11 9 112 30 58 7 336 316 299 277 27 333 279 292 325 301 301 301 307 307 306 299 300 300 292 288 286 282 290 294 281 278 278 247 249 283
159 116 121 171 195 236 216 348 333 349 204 331 35 326 314 346 348 295 324 322 341 309 310 309 310 307 305 305 305 299 297 296 293 294 293 290 283 288 291 281 276 269 246 260
150 156 208 191 219 280 298 315 304 180 260 318 350 338 334 324 226 287 311 324 314 312 315 316 312 305 303 306 304 297 296 291 291 292 293 289 285 283 282 272 262 261 252 238
177 172 194 186 214 254 343 22 90 282 300 319 340 330 319 284 294 308 315 310 316 320 319 313 307 305 306 306 302 295 292 292 291 289 289 288 286 280 279 272 270 260 253 245
199 188 172 217 242 92 61 87 246 255 267 339 9 339 325 329 322 314 311 317 320 316 315 313 310 309 310 306 300 294 294 297 293 287 286 287 285 282 278 268 251 248 249 223
347 131 198 210 81 181 156 258 276 30 44 18 1 352 22 330 324 320 314 319 320 317 315 317 318 313 307 310 305 296 296 293 288 285 286 288 284 278 271 257 245 244 249 228
213 165 186 220 132 157 187 212 64 50 54 19 26 27 1 339 331 330 325 321 318 314 317 319 311 308 309 311 308 307 305 309 298 287 287 286 283 272 267 255 233 229 228 222
228 178 141 179 181 188 267 102 79 75 41 37 21 357 349 344 332 328 322 317 314 319 320 316 314 312 313 312 314 314 314 315 313 287 294 290 297 291 296 277 246 242 216 218